Location: Boskydell
(37.6712°N, 89.2137°W)
Time: 10:50:30
(UTC+00:00)

Daily predictions for brighter satellites

Satellite Brightness Start Highest point End
(mag) Time Altitude Azimuth Time Altitude Azimuth Time Altitude Azimuth
Cosmos 2369 Rocket 3.2 12:02:30 10° WSW 12:06:49 22° NW 12:11:08 10° N
Cosmos 1408 Rocket 3.6 12:03:35 10° SSW 12:07:47 54° W 12:12:01 10° N
FengYun 1-2 T 4.3 12:08:21 10° NNE 12:13:51 87° ESE 12:19:20 10° SSW
USA 215 3.3 12:08:14 10° SE 12:14:46 82° SW 12:21:20 10° NW
BREEZE-M DEB 3.3 12:12:02 10° WSW 12:14:59 67° NNW 12:23:36 10° NE
Cosmos 1743 Rocket 3.6 12:10:55 10° S 12:15:19 90° WNW 12:19:43 10° N
Cosmos 2279 Rocket 4.5 12:10:20 10° NNW 12:15:59 38° W 12:21:37 10° SSW
H-2A R/B 3.5 12:14:22 10° NNE 12:18:58 40° E 12:23:36 10° SSE
Cosmos 1602 4.4 12:16:02 10° S 12:19:46 59° E 12:23:31 10° NNE
Nadezhda 4 Rocket 4.0 12:15:41 10° SSW 12:21:43 60° W 12:27:52 10° N
AQUARIUS 4.3 12:20:03 10° NNE 12:24:35 86° ESE 12:29:03 10° SSW
DMSP B5D2-2 4.3 12:20:56 10° S 12:26:01 52° W 12:31:06 10° NNW
Cosmos 1515 Rocket 3.9 12:24:10 10° NNW 12:28:20 45° W 12:32:27 10° SSW
USA 32 4.2 12:26:16 10° N 12:31:32 87° E 12:36:46 10° S
Meteor 1-20 Rocket 4.3 12:26:06 10° S 12:31:38 88° W 12:37:18 10° N
SL-8 R/B 4.1 12:27:01 10° NW 12:31:44 56° NNE 12:36:25 10° ESE
BREEZE-M DEB (TANK) 4.4 12:21:06 10° NW 12:33:52 38° WSW 12:38:12 10° S
Cosmos 2221 3.6 22:59:48 10° SSW 23:03:55 48° W 23:08:06 10° N
CZ-4B R/B 4.3 23:01:06 10° ESE 23:04:59 20° ENE 23:08:49 10° NNE
Cosmos 1842 Rocket 4.3 23:00:45 10° SSW 23:05:07 57° W 23:09:32 10° N
Sich 1 4.1 23:02:24 10° NNE 23:05:55 24° ENE 23:09:26 10° SE
Cosmos 1805 Rocket 4.3 23:02:08 10° NNE 23:06:01 31° ENE 23:09:52 10° SE
NOSS 3-1 (A) 4.3 22:59:26 10° NNW 23:07:02 57° NE 23:15:44 10° SE
NOSS 3-1 (C) 4.3 22:59:50 10° NNW 23:07:41 86° ENE 23:16:41 10° SSE
GPS 2-04 Rocket1 3.1 23:04:02 10° WSW 23:08:07 66° S 23:12:11 10° E
Cosmos 44 3.3 23:06:14 10° NNW 23:10:56 82° WSW 23:15:20 10° SSE
Cosmos 468 Rocket 4.2 23:06:00 10° SSW 23:11:08 78° WNW 23:16:20 10° NNE
CZ-2C R/B 3.6 23:07:47 10° NE 23:12:00 25° E 23:16:11 10° SSE
CZ-2C R/B 3.2 23:07:30 10° S 23:12:29 76° WSW 23:17:18 10° NNW
Meteor 1-20 Rocket 4.3 23:07:50 10° N 23:13:39 62° E 23:19:24 10° SSE
Cosmos 1898 Rocket 3.6 23:13:05 10° N 23:18:14 54° ENE 23:23:18 10° SSE
Cosmos 2084 3.7 23:14:57 10° NNW 23:19:13 51° NE 23:23:37 10° SE
Nadezhda 4 Rocket 4.2 23:12:54 10° N 23:19:15 81° W 23:25:33 10° S
Cosmos 1666 4.3 23:18:11 10° NE 23:20:11 14° ENE 23:22:09 10° ESE
AQUARIUS 4.2 23:16:46 10° SSE 23:21:10 60° ENE 23:25:35 10° N
CZ-4C R/B 3.8 23:21:44 10° NNW 23:27:53 28° NE 23:34:47 10° E
Cosmos 1939 Rocket 3.1 23:25:31 10° S 23:29:38 79° W 23:33:45 10° NNW
Cosmos 1812 3.3 23:29:08 10° SSE 23:32:39 35° E 23:36:10 10° NNE
Cosmos 1092 Rocket 4.0 23:28:00 10° N 23:34:22 77° E 23:40:41 10° S
H-2A R/B 2.2 23:29:36 10° SE 23:34:36 48° ENE 23:39:29 10° N
Cosmos 1428 Rocket 4.4 23:32:22 10° N 23:38:30 72° E 23:44:39 10° SSE
USA 276 2.0 23:35:53 10° NW 23:38:59 60° NE 23:41:29 14° ESE
COSMO-SKYMED 1 3.0 23:35:14 10° NNE 23:39:22 42° E 23:43:28 10° S
BREEZE-M DEB (TANK) 4.1 23:38:37 10° NW 23:46:08 65° SW 23:49:01 10° SE
Cosmos 921 Rocket 4.2 23:43:43 10° SSE 23:46:53 21° E 23:47:24 21° E
Cosmos 2142 Rocket 4.5 23:42:28 10° S 23:48:28 62° E 23:54:34 10° NNE
Cosmos 1633 Rocket 3.7 23:45:49 10° NNE 23:49:46 32° ENE 23:53:43 10° SE
Cosmos 841 Rocket 3.7 23:46:05 10° SSW 23:51:14 74° WNW 23:56:24 10° NNE
Cosmos 1697 Rocket 2.7 23:47:07 10° NNW 23:52:46 87° WSW 23:58:22 10° SSE
Cosmos 1602 4.1 23:49:23 10° NNW 23:53:13 65° W 23:57:03 10° S
Cosmos 1782 3.4 23:51:48 10° SSW 23:55:44 58° W 23:59:41 10° N
